Weather History for Paris, IL

Change the Weather History Date:

Thursday, September 19, 2013

  Actual Average (KHUF) Record (KHUF)
Temperature  
Mean Temperature 78 °F 65 °F  
Max Temperature 88 °F 77 °F 95 °F (1955)
Min Temperature 69 °F 52 °F 38 °F (2012)
Degree Days  
Heating Degree Days 0 3  
Month to date heating degree days 21  
Since 1 July heating degree days 26  
Cooling Degree Days 14 2  
Month to date cooling degree days 79  
Year to date cooling degree days 958  
Growing Degree Days 28 (Base 50)    
Moisture  
Dew Point 70 °F    
Average Humidity 81    
Maximum Humidity 97    
Minimum Humidity 51    
Precipitation  
Precipitation 0.03 in 0.10 in 1.10 in (2002)
Month to date precipitation 2.32  
Year to date precipitation 33.60  
Sea Level Pressure  
Sea Level Pressure 29.99 in    
Wind  
Wind Speed 7 mph (South)    
Max Wind Speed 15 mph    
Max Gust Speed 21 mph    
Visibility 7 miles    
Events Rain , Thunderstorm    
T = Trace of Precipitation, MM = Missing Value Source: NWS Daily Summary

Daily Weather History Graph

Daily Weather History Graph

Search for Another Location

Airport:

Trip Planner

Search our weather history database for the weather conditions in past years. The results will help you decide how hot, cold, wet, or windy it might be!

Date:

Astronomy

Sep. 19, 2013 Rise Set
Actual Time 6:35 AM CDT 6:52 PM CDT
Civil Twilight 6:08 AM CDT 7:19 PM CDT
Nautical Twilight 5:37 AM CDT 7:50 PM CDT
Astronomical Twilight 5:04 AM CDT 8:22 PM CDT
Moon 6:50 PM CDT (9/19) 6:44 AM CDT (9/19)
Length of Visible Light 13h 10m
Length of Day
12h 16m
Full, 100% of the Moon is Illuminated
Sep 19
Full
Sep 26
Last Quarter
Oct 4
New
Oct 11
First Quarter
Oct 18
Full

Hourly Weather History & Observations

Time (CDT) Temp. Heat Index Dew Point Humidity Pressure Visibility Wind Dir Wind Speed Gust Speed Precip Events Conditions
12:15 AM 69.8 °F - 68.4 °F 95% 30.03 in 3.0 mi South 6.9 mph - N/A   Mist
12:35 AM 70.2 °F - 68.7 °F 95% 30.03 in 4.0 mi South 5.8 mph - N/A   Clear
12:55 AM 70.3 °F - 68.5 °F 94% 30.03 in 4.0 mi South 5.8 mph - N/A   Clear
1:15 AM 70.5 °F - 68.7 °F 94% 30.03 in 4.0 mi South 6.9 mph - N/A   Clear
1:35 AM 70.2 °F - 68.5 °F 95% 30.04 in 4.0 mi South 5.8 mph - N/A   Clear
1:55 AM 70.3 °F - 68.9 °F 95% 30.03 in 4.0 mi South 5.8 mph - N/A Thunderstorm Scattered Clouds
2:15 AM 70.7 °F - 68.9 °F 94% 30.03 in 5.0 mi South 5.8 mph - N/A   Scattered Clouds
2:35 AM 71.1 °F - 69.1 °F 93% 30.02 in 5.0 mi SSW 6.9 mph - N/A   Scattered Clouds
2:55 AM 71.6 °F - 69.3 °F 92% 30.02 in 5.0 mi SSW 8.1 mph - N/A   Clear
3:15 AM 72.0 °F - 69.3 °F 91% 30.02 in 7.0 mi SSW 9.2 mph - N/A   Clear
3:35 AM 71.6 °F - 69.1 °F 92% 30.02 in 5.0 mi SSW 6.9 mph - N/A Rain , Thunderstorm Light Thunderstorms and Rain
3:55 AM 71.6 °F - 69.3 °F 92% 30.02 in 5.0 mi SW 8.1 mph - N/A   Scattered Clouds
4:15 AM 71.4 °F - 69.3 °F 93% 30.03 in 5.0 mi SW 5.8 mph - N/A   Mostly Cloudy
4:35 AM 71.2 °F - 69.4 °F 94% 30.03 in 5.0 mi SW 3.5 mph - N/A   Overcast
4:55 AM 71.1 °F - 69.4 °F 95% 30.02 in 5.0 mi SSW 5.8 mph - N/A Rain Light Rain
5:15 AM 70.9 °F - 69.4 °F 95% 30.02 in 4.0 mi SSW 4.6 mph - N/A Rain Rain
5:35 AM 71.1 °F - 69.8 °F 96% 30.02 in 5.0 mi South 6.9 mph - N/A   Overcast
5:55 AM 71.2 °F - 69.8 °F 95% 30.02 in 5.0 mi South 6.9 mph - N/A   Overcast
6:15 AM 71.2 °F - 69.6 °F 95% 30.03 in 4.0 mi South 3.5 mph - N/A Rain Light Rain
6:35 AM 70.7 °F - 69.4 °F 96% 30.04 in 3.0 mi East 4.6 mph - N/A Rain , Thunderstorm Light Thunderstorms and Rain
6:55 AM 70.7 °F - 69.8 °F 97% 30.05 in 4.0 mi SE 5.8 mph - 0.01 in Thunderstorm Overcast
7:15 AM 70.7 °F - 69.8 °F 97% 30.05 in 4.0 mi SSE 6.9 mph - N/A Thunderstorm Overcast
7:35 AM 70.7 °F - 69.8 °F 97% 30.05 in 3.0 mi SE 4.6 mph - N/A Thunderstorm Overcast
7:55 AM 70.7 °F - 69.8 °F 97% 30.04 in 3.0 mi SSE 3.5 mph - N/A Thunderstorm Overcast
8:15 AM 70.7 °F - 69.8 °F 97% 30.05 in 3.0 mi ESE 4.6 mph - N/A Thunderstorm Mostly Cloudy
8:35 AM 70.7 °F - 69.8 °F 97% 30.05 in 2.5 mi Calm Calm - N/A Thunderstorm Mostly Cloudy
8:55 AM 71.2 °F - 70.2 °F 96% 30.05 in 2.5 mi East 5.8 mph - N/A Thunderstorm Overcast
9:15 AM 71.6 °F - 70.7 °F 97% 30.05 in 3.0 mi ESE 4.6 mph - 0.01 in Thunderstorm Overcast
9:35 AM 73.4 °F - 71.1 °F 92% 30.06 in 4.0 mi ESE 6.9 mph - 0.01 in Thunderstorm Mostly Cloudy
9:55 AM 72.9 °F - 70.3 °F 92% 30.06 in 4.0 mi ESE 8.1 mph - 0.01 in Thunderstorm Overcast
10:15 AM 73.6 °F - 70.7 °F 91% 30.06 in 4.0 mi SE 10.4 mph - N/A Thunderstorm Overcast
10:35 AM 75.2 °F - 70.9 °F 86% 30.06 in 5.0 mi SE 8.1 mph - N/A Thunderstorm Overcast
10:55 AM 76.1 °F - 70.9 °F 84% 30.05 in 5.0 mi SSE 11.5 mph 16.1 mph N/A   Haze
11:15 AM 77.2 °F - 71.4 °F 82% 30.05 in 5.0 mi SE 11.5 mph - N/A   Haze
11:35 AM 78.1 °F - 71.2 °F 79% 30.05 in 7.0 mi SSE 12.7 mph - N/A Thunderstorm Mostly Cloudy
11:55 AM 80.4 °F 84.1 °F 71.1 °F 73% 30.04 in 7.0 mi SSE 9.2 mph - 0.01 in   Scattered Clouds
12:15 PM 81.7 °F 85.8 °F 71.2 °F 70% 30.03 in 7.0 mi South 8.1 mph 17.3 mph N/A   Scattered Clouds
12:35 PM 83.1 °F 88.1 °F 71.8 °F 68% 30.02 in 10.0 mi SSE 10.4 mph - N/A   Scattered Clouds
12:55 PM 84.2 °F 89.6 °F 71.6 °F 66% 30.01 in 10.0 mi South 9.2 mph 16.1 mph N/A   Clear
1:15 PM 85.3 °F 90.8 °F 71.4 °F 63% 30.00 in 10.0 mi South 10.4 mph - N/A   Scattered Clouds
1:35 PM 86.0 °F 91.1 °F 70.5 °F 60% 29.99 in 10.0 mi South 10.4 mph 18.4 mph N/A   Scattered Clouds
1:55 PM 86.7 °F 91.7 °F 70.2 °F 58% 29.98 in 10.0 mi SSW 13.8 mph 20.7 mph N/A   Scattered Clouds
2:15 PM 87.1 °F 92.0 °F 70.2 °F 57% 29.98 in 10.0 mi South 11.5 mph 18.4 mph N/A   Scattered Clouds
2:35 PM 88.5 °F 92.7 °F 68.7 °F 52% 29.98 in 10.0 mi SSW 9.2 mph 17.3 mph N/A   Clear
2:55 PM 88.9 °F 93.0 °F 68.9 °F 51% 29.97 in 10.0 mi South 10.4 mph - N/A   Clear
3:15 PM 88.7 °F 92.6 °F 68.5 °F 51% 29.97 in 10.0 mi SSW 15.0 mph - N/A   Clear
3:35 PM 88.2 °F 92.5 °F 69.1 °F 53% 29.96 in 10.0 mi South 13.8 mph 20.7 mph N/A   Clear
3:55 PM 88.0 °F 92.1 °F 69.1 °F 53% 29.95 in 10.0 mi South 9.2 mph 18.4 mph N/A   Clear
4:15 PM 87.8 °F 92.6 °F 69.6 °F 55% 29.94 in 10.0 mi South 11.5 mph 17.3 mph N/A   Clear
4:35 PM 87.1 °F 91.6 °F 69.6 °F 56% 29.93 in 10.0 mi South 10.4 mph 18.4 mph N/A   Clear
4:55 PM 87.1 °F 91.6 °F 69.8 °F 56% 29.92 in 10.0 mi South 11.5 mph 16.1 mph N/A   Clear
5:15 PM 86.0 °F 90.7 °F 70.0 °F 59% 29.92 in 10.0 mi South 11.5 mph 17.3 mph N/A   Clear
5:35 PM 85.5 °F 90.1 °F 70.3 °F 60% 29.92 in 10.0 mi South 8.1 mph - N/A   Clear
5:55 PM 83.5 °F 88.2 °F 70.9 °F 66% 29.92 in 10.0 mi SSE 9.2 mph - N/A   Clear
6:15 PM 82.4 °F 86.7 °F 70.7 °F 68% 29.90 in 10.0 mi SSE 9.2 mph - N/A   Scattered Clouds
6:35 PM 81.5 °F 85.5 °F 70.7 °F 70% 29.90 in 10.0 mi SSE 9.2 mph - N/A   Clear
6:55 PM 79.9 °F - 70.7 °F 73% 29.91 in 10.0 mi SSE 6.9 mph - N/A   Clear
7:15 PM 79.3 °F - 70.9 °F 75% 29.90 in 10.0 mi SSE 9.2 mph - N/A   Clear
7:35 PM 78.8 °F - 71.1 °F 77% 29.92 in 10.0 mi SSE 8.1 mph - N/A   Scattered Clouds
7:55 PM 78.3 °F - 71.1 °F 78% 29.93 in 10.0 mi SSE 6.9 mph - N/A   Mostly Cloudy
8:15 PM 77.5 °F - 71.1 °F 80% 29.93 in 10.0 mi SSE 5.8 mph - N/A   Scattered Clouds
8:35 PM 77.0 °F - 71.1 °F 82% 29.94 in 10.0 mi South 6.9 mph - N/A   Clear
8:55 PM 77.2 °F - 71.2 °F 82% 29.94 in 10.0 mi South 6.9 mph - N/A   Clear
9:15 PM 77.2 °F - 71.1 °F 81% 29.95 in 10.0 mi South 6.9 mph - N/A   Scattered Clouds
9:35 PM 76.6 °F - 70.9 °F 82% 29.94 in 10.0 mi South 6.9 mph - N/A   Scattered Clouds
9:55 PM 76.1 °F - 70.7 °F 83% 29.94 in 10.0 mi South 5.8 mph - N/A   Clear
10:15 PM 75.7 °F - 70.7 °F 84% 29.94 in 10.0 mi South 8.1 mph - N/A   Clear
10:35 PM 75.4 °F - 70.3 °F 84% 29.94 in 10.0 mi South 6.9 mph - N/A   Clear
10:55 PM 76.1 °F - 70.3 °F 82% 29.96 in 10.0 mi South 8.1 mph - N/A   Clear
11:15 PM 77.0 °F - 70.7 °F 81% 29.95 in 10.0 mi South 10.4 mph 17.3 mph N/A   Mostly Cloudy
11:35 PM 76.8 °F - 70.7 °F 81% 29.95 in 10.0 mi SSW 10.4 mph 16.1 mph N/A   Scattered Clouds
11:55 PM 76.5 °F - 70.7 °F 82% 29.95 in 10.0 mi SSW 10.4 mph 16.1 mph N/A   Clear